EW4210 Weather Reports


Display with metric or nautical units.
time (UTC)temp
F
wind
direction
speed
MPH
gust
MPH
rain 1hr
in
rain 24hr
in
rain mn
in
humidity
%
barometer
mb
20260508051547 57 136 0.0 0.0 0.00 0.00 0.00 80 1015.2
20260508050029 58 136 0.0 1.0 0.00 0.00 0.00 80 1015.3
20260508044505 58 136 0.0 0.0 0.00 0.00 0.00 78 1015.2
20260508043045 59 136 0.0 1.0 0.00 0.00 0.00 78 1015.3
20260508041524 59 137 0.0 1.0 0.00 0.00 0.00 77 1015.4
20260508040012 59 137 0.0 2.0 0.00 0.00 0.00 77 1015.3
20260508034549 60 91 0.0 2.0 0.00 0.00 0.00 76 1015.4
20260508033028 60 91 0.0 0.0 0.00 0.00 0.00 74 1015.4
20260508031515 60 84 0.0 2.0 0.00 0.00 0.00 74 1015.3
20260508030104 60 293 0.0 0.0 0.00 0.00 0.00 75 1015.3
20260508030006 60 293 0.0 1.0 0.00 0.00 0.00 75 1015.3
20260508024546 60 293 0.0 1.0 0.00 0.00 0.00 76 1015.3
20260508023031 59 293 0.0 0.0 0.00 0.00 0.00 75 1015.2
20260508021514 59 293 0.0 1.0 0.00 0.00 0.00 74 1015.1
20260508020054 60 293 0.0 1.0 0.00 0.00 0.00 73 1014.9
20260508014542 60 293 0.0 1.0 0.00 0.00 0.00 72 1014.9
20260508013020 61 293 0.0 1.0 0.00 0.00 0.00 68 1014.6
20260508011507 62 293 0.0 1.0 0.00 0.00 0.00 67 1014.4
20260508010048 63 293 0.0 0.0 0.00 0.00 0.00 67 1014.4
20260508004534 64 293 0.0 1.0 0.00 0.00 0.00 65 1014.2
20260508003016 66 293 0.0 1.0 0.00 0.00 0.00 60 1014.4
20260508001559 67 293 0.0 0.0 0.00 0.00 0.00 59 1014.4
20260508001503 67 293 0.0 0.0 0.00 0.00 0.00 57 1014.3
20260508000044 68 293 0.0 2.0 0.00 0.00 0.00 56 1014.4
20260507234523 68 256 0.0 2.0 0.00 0.00 0.00 52 1014.8
20260507233008 68 256 0.0 4.0 0.00 0.00 0.00 48 1014.7
20260507231556 68 202 0.0 3.0 0.00 0.00 0.00 48 1014.6
20260507230041 68 5 0.0 2.0 0.00 0.00 0.00 48 1014.6
20260507224530 68 287 1.0 4.0 0.00 0.00 0.00 46 1014.9
20260507223012 68 166 0.0 2.0 0.00 0.00 0.00 46 1014.8
20260507221553 68 256 0.0 4.0 0.00 0.00 0.00 48 1014.9
20260507220035 68 355 1.0 3.0 0.00 0.00 0.00 48 1014.8
20260507214521 69 298 2.0 5.0 0.00 0.00 0.00 45 1014.8
20260507213100 68 290 2.0 3.0 0.00 0.01 0.00 48 1014.8
20260507213006 68 280 2.0 3.0 0.00 0.01 0.00 48 1014.8
20260507211540 69 294 2.0 6.0 0.00 0.01 0.00 47 1014.8
20260507210023 68 338 1.0 3.0 0.00 0.01 0.00 49 1014.9
20260507204604 69 297 4.0 7.0 0.00 0.01 0.00 45 1015.2
20260507203048 69 171 0.0 3.0 0.00 0.03 0.00 46 1015.4
20260507201526 69 281 1.0 3.0 0.00 0.03 0.00 47 1015.5
20260507200005 68 300 2.0 4.0 0.00 0.03 0.00 47 1015.8
20260507194543 68 346 0.0 4.0 0.00 0.03 0.00 51 1016.0
20260507193021 67 300 2.0 4.0 0.00 0.08 0.00 49 1016.3
20260507191505 66 287 1.0 3.0 0.00 0.08 0.00 53 1016.3
20260507190044 66 332 2.0 5.0 0.00 0.08 0.00 52 1016.7
20260507184525 66 298 2.0 6.0 0.00 0.08 0.00 53 1016.6
20260507183020 65 325 1.0 6.0 0.00 0.11 0.00 52 1016.8
20260507181549 67 209 1.0 4.0 0.00 0.11 0.00 57 1017.0
20260507180038 67 301 1.0 3.0 0.00 0.11 0.00 53 1017.1
20260507174510 66 86 1.0 5.0 0.00 0.11 0.00 57 1017.4
20260507173059 65 347 0.0 3.0 0.00 0.17 0.00 55 1017.8
20260507171531 64 12 1.0 5.0 0.00 0.17 0.00 55 1018.1
20260507170018 64 227 1.0 4.0 0.00 0.17 0.00 51 1018.3
20260507164603 64 37 1.0 3.0 0.00 0.17 0.00 55 1018.4
20260507163033 64 110 1.0 4.0 0.00 0.17 0.00 54 1018.6
20260507161520 63 333 0.0 3.0 0.00 0.17 0.00 56 1018.7
20260507160051 62 321 0.0 4.0 0.00 0.17 0.00 63 1018.8
20260507154537 61 298 2.0 4.0 0.00 0.17 0.00 65 1018.8
20260507153012 61 315 2.0 3.0 0.00 0.17 0.00 68 1018.8
20260507151548 60 244 0.0 2.0 0.00 0.17 0.00 76 1018.9
20260507150025 59 311 0.0 4.0 0.00 0.17 0.00 73 1018.8
20260507144510 58 350 0.0 3.0 0.00 0.17 0.00 74 1018.8
20260507143046 58 34 1.0 2.0 0.00 0.17 0.00 74 1018.7
20260507141522 56 15 0.0 0.0 0.00 0.17 0.00 79 1018.6
20260507140056 56 296 0.0 1.0 0.00 0.17 0.00 80 1018.2
20260507140009 55 296 0.0 1.0 0.00 0.17 0.00 80 1018.3
20260507134547 54 348 0.0 2.0 0.00 0.17 0.00 81 1018.4
20260507133016 53 38 0.0 2.0 0.00 0.17 0.00 83 1018.6
20260507131607 51 348 1.0 3.0 0.00 0.17 0.00 85 1018.6
20260507130041 50 348 0.0 2.0 0.00 0.17 0.00 88 1018.5
20260507124520 50 325 0.0 2.0 0.00 0.17 0.00 89 1018.3
20260507123011 49 344 0.0 3.0 0.00 0.17 0.00 91 1018.4
20260507121540 49 337 1.0 3.0 0.00 0.17 0.00 91 1018.3
20260507120022 48 337 1.0 3.0 0.00 0.17 0.00 92 1018.2
20260507114503 48 328 0.0 0.0 0.00 0.17 0.00 93 1017.7
20260507113036 48 328 0.0 1.0 0.00 0.17 0.00 93 1017.1
20260507111522 48 328 0.0 0.0 0.00 0.17 0.00 93 1017.2
20260507110105 48 328 0.0 0.0 0.00 0.17 0.00 94 1017.1
20260507104538 48 328 0.0 0.0 0.00 0.17 0.00 95 1017.0
20260507103023 48 328 0.0 0.0 0.00 0.18 0.00 95 1016.8
20260507101601 48 328 0.0 0.0 0.00 0.18 0.00 95 1016.8
20260507101507 48 328 0.0 0.0 0.00 0.18 0.00 95 1016.8
20260507100050 48 328 0.0 0.0 0.00 0.18 0.00 94 1016.6
20260507094526 49 328 0.0 0.0 0.00 0.18 0.00 94 1016.5
20260507093006 49 328 0.0 0.0 0.00 0.22 0.00 93 1016.4
20260507091602 50 328 0.0 0.0 0.00 0.22 0.00 93 1016.5
20260507090036 50 328 0.0 0.0 0.00 0.22 0.00 94 1016.7
20260507084503 51 328 0.0 0.0 0.00 0.22 0.00 94 1016.6
20260507083044 51 328 0.0 0.0 0.00 0.22 0.00 94 1016.4
20260507081530 51 140 0.0 0.0 0.00 0.22 0.00 94 1016.4
20260507080005 52 140 0.0 0.0 0.00 0.22 0.00 94 1016.4
20260507074546 52 140 0.0 0.0 0.00 0.22 0.00 95 1016.2
20260507073025 52 140 0.0 0.0 0.00 0.22 0.00 95 1016.2
20260507071511 52 140 0.0 0.0 0.00 0.22 0.00 95 1016.3
20260507070059 52 140 0.0 0.0 0.00 0.22 0.00 95 1016.3
20260507064532 53 140 0.0 0.0 0.00 0.22 0.00 95 1016.2
20260507063016 53 140 0.0 0.0 0.00 0.22 0.22 95 1016.3
20260507061551 53 140 0.0 0.0 0.00 0.22 0.22 95 1016.4
20260507060037 54 140 0.0 0.0 0.00 0.22 0.22 95 1016.4
20260507054513 54 140 0.0 0.0 0.00 0.22 0.22 96 1016.4
20260507053007 54 140 0.0 1.0 0.00 0.30 0.22 96 1016.2